Tracking 28081 objects as of 26-Sep-2023
HD Live streaming from Space Station
objects crossing your sky now

STARLINK-6117

Track STARLINK-6117 now!
10-day predictions
STARLINK-6117 is classified as:


NORAD ID: 56130
Int'l Code: 2023-046AQ
Perigee: 565.4 km
Apogee: 566.9 km
Inclination: 43.0 °
Period: 95.8 minutes
Semi major axis: 6937 km
RCS: Unknown
Launch date: March 29, 2023
Source: United States (US)
Launch site: AIR FORCE EASTERN TEST RANGE (AFETR)
Your satellite tracking list
Your tracking list is empty




NASA's NSSDC Master Catalog

Two Line Element Set (TLE):
1 56130U 23046AQ  23268.59223569  .00012166  00000-0  91359-3 0  9998
2 56130  43.0039 335.2868 0001128 273.2152  86.8562 15.02556563 27412
Source of the keplerian elements: AFSPC